Overview Statistics Trail Chart Weather Telemetry Raw packets
 

This is the latest recevied weather packets stored in our database for station/object E24QND-2. If no packets are shown the sender has not sent any weather packets the latest 10 day(s).

<< 24 25 26 27 28 29 >>
Time Temp. Humidity Pressure Rain* Wind** Luminosity Snow
1787921859 30° C 1% - - - 0 W/m² -
1787920635 29.44° C 1% - - - 0 W/m² -
1787919413 29.44° C 1% - - - 0 W/m² -
1787918186 29.44° C 1% - - - 0 W/m² -
1787916961 30° C 1% - - - 0 W/m² -
1787915737 30.56° C 1% - - - 0 W/m² -
1787914512 30.56° C 1% - - - 0 W/m² -
1787913287 30.56° C 1% - - - 0 W/m² -
1787912063 31.11° C 1% - - - 0 W/m² -
1787910838 31.11° C 57% - - - 0 W/m² -
1787909614 31.67° C 99% - - - 0 W/m² -
1787908389 32.22° C 99% - - - 0 W/m² -
1787907165 32.22° C 1% - - - 0 W/m² -
1787905940 32.22° C 1% - - - 0 W/m² -
1787904716 32.22° C 1% - - - 0 W/m² -
1787903491 31.67° C 99% - - - 0 W/m² -
1787902267 32.22° C 99% - - - 0 W/m² -
1787901042 31.67° C 99% - - - 0 W/m² -
1787899817 31.67° C 99% - - - 0 W/m² -
1787898593 32.78° C 1% - - - 0 W/m² -
1787897368 32.22° C 99% - - - 0 W/m² -
1787896144 33.89° C 99% - - - 0 W/m² -
1787894919 32.78° C 1% - - - 0 W/m² -
1787893695 32.78° C 21% - - - 0 W/m² -
1787892470 32.22° C 1% - - - 0 W/m² -

* Rain since midnight (hover to see other rain measurements)
** Current wind speed in m/s (hover to see current wind gust speed)